Powrót do katalogu

CZ-4B DEB

AktywnyLEO
NORAD 40531·DEBRIS·🇨🇳 China

Wystrzelony Oct 25, 2013 z Jiuquan Satellite Launch Center

Loading…

Następne Przeloty (najbliższe 24 godziny)

TLE

ŚwieżeSource: Space-Track

Epoka: Sep 13, 2026, 04:12 UTC

1 40531U 13057D   26256.17529307  .00001936  00000-0  33706-3 0  9995
2 40531  74.9656  75.6511 0179366  45.0153 316.5394 14.58573471604643

Śledź CZ-4B DEB w czasie rzeczywistym z AllMySat

Download on the App Store